Total_Precipitation_Accumulation
0.73 0.74 0.69 0.73 0.69 0.67 0.69 0.69 0.56 0.53 0.51 0.41 0.38 0.39 0.41 0.35 0.38 0.36 0.40 0.55 0.82 1.04 0.98 0.85 0.74 0.59 0.52 0.52 0.49 0.49 0.51 0.49 0.52 0.54 0.52 0.46 0.47 0.44 0.37 0.38 0.45 0.43 0.38
0.62 0.74 0.72 0.77 0.68 0.70 0.77 0.70 0.63 0.62 0.60 0.50 0.40 0.41 0.40 0.36 0.37 0.42 0.46 0.57 0.73 1.06 1.28 1.17 1.05 0.89 0.67 0.54 0.52 0.54 0.49 0.44 0.46 0.51 0.46 0.38 0.39 0.36 0.30 0.30 0.40 0.43 0.40
0.62 0.74 0.78 0.77 0.73 0.76 0.79 0.82 0.81 0.75 0.65 0.55 0.47 0.43 0.40 0.40 0.40 0.40 0.41 0.56 0.58 0.65 0.98 1.24 1.29 1.20 0.95 0.69 0.58 0.51 0.47 0.43 0.42 0.45 0.42 0.33 0.32 0.29 0.27 0.28 0.35 0.34 0.35
0.67 0.86 0.92 0.80 0.85 0.94 0.97 0.98 0.94 0.85 0.75 0.68 0.67 0.56 0.45 0.43 0.44 0.43 0.42 0.45 0.43 0.39 0.48 0.62 0.75 0.91 1.06 0.97 0.79 0.60 0.53 0.42 0.35 0.38 0.35 0.29 0.25 0.23 0.25 0.30 0.29 0.30 0.34
0.88 1.05 1.12 1.03 1.01 1.14 1.11 1.00 1.00 0.99 0.89 0.86 0.82 0.76 0.58 0.48 0.46 0.43 0.45 0.51 0.50 0.44 0.43 0.39 0.43 0.52 0.73 0.88 0.88 0.77 0.63 0.47 0.36 0.34 0.31 0.23 0.19 0.20 0.21 0.24 0.25 0.28 0.30
1.13 1.28 1.37 1.33 1.29 1.39 1.37 1.24 1.30 1.28 1.16 1.19 1.07 0.92 0.76 0.65 0.59 0.54 0.50 0.54 0.60 0.52 0.47 0.40 0.40 0.36 0.43 0.57 0.70 0.73 0.66 0.56 0.44 0.36 0.30 0.23 0.18 0.16 0.18 0.21 0.23 0.26 0.28
1.52 1.63 1.59 1.80 1.86 1.83 1.83 1.76 1.85 1.84 1.57 1.41 1.63 1.55 1.11 0.81 0.69 0.67 0.64 0.59 0.58 0.59 0.57 0.54 0.48 0.40 0.34 0.34 0.39 0.53 0.58 0.58 0.52 0.42 0.35 0.27 0.21 0.18 0.16 0.20 0.24 0.28 0.30
1.86 1.79 1.86 2.06 2.10 2.19 2.28 2.11 2.20 2.25 1.92 1.63 1.96 2.29 1.77 1.35 0.83 0.61 0.63 0.65 0.65 0.65 0.64 0.56 0.54 0.50 0.41 0.40 0.28 0.33 0.45 0.54 0.57 0.51 0.45 0.38 0.29 0.22 0.17 0.17 0.23 0.29 0.30
2.25 2.14 2.09 2.21 2.22 2.28 2.44 2.47 2.41 2.45 2.33 2.02 1.99 2.36 2.15 1.82 1.41 0.83 0.66 0.69 0.74 0.73 0.74 0.73 0.66 0.60 0.51 0.52 0.49 0.35 0.32 0.37 0.51 0.53 0.53 0.46 0.38 0.31 0.23 0.21 0.24 0.27 0.26
2.41 2.37 2.31 2.37 2.37 2.31 2.39 2.47 2.46 2.63 2.75 2.45 2.21 1.99 1.85 1.82 1.79 1.35 0.88 0.75 0.83 0.84 0.84 0.75 0.72 0.75 0.70 0.62 0.62 0.48 0.36 0.32 0.42 0.53 0.58 0.59 0.52 0.40 0.33 0.28 0.29 0.27 0.25
2.12 2.11 2.21 2.36 2.37 2.33 2.33 2.49 2.60 2.77 2.71 2.60 2.44 2.31 2.12 1.91 1.55 1.57 1.44 1.14 1.00 0.87 0.90 0.94 0.91 0.92 0.89 0.87 0.92 0.64 0.46 0.33 0.34 0.47 0.57 0.63 0.64 0.55 0.46 0.38 0.32 0.30 0.32
1.93 1.85 1.94 2.04 2.13 2.18 2.16 2.19 2.33 2.47 2.61 2.73 2.63 2.45 2.32 2.17 1.96 1.81 1.51 1.36 1.33 1.10 0.96 0.93 0.98 0.98 1.02 1.02 0.97 0.92 0.65 0.46 0.34 0.36 0.45 0.54 0.64 0.68 0.63 0.57 0.48 0.40 0.40
1.85 1.79 1.74 1.82 1.90 1.94 2.04 2.20 2.16 2.18 2.33 2.50 2.49 2.43 2.38 2.17 2.03 2.05 1.87 1.53 1.42 1.22 1.10 0.99 0.93 0.94 0.92 0.96 1.04 1.02 0.75 0.62 0.44 0.35 0.36 0.36 0.43 0.52 0.61 0.71 0.77 0.73 0.70
1.46 1.44 1.48 1.57 1.74 1.83 1.92 2.03 2.05 2.02 2.07 2.13 2.17 2.25 2.28 2.18 1.97 1.90 1.93 2.00 1.73 1.43 1.22 1.05 0.95 0.90 0.89 0.89 1.01 1.08 0.75 0.63 0.52 0.43 0.38 0.33 0.34 0.38 0.47 0.58 0.73 0.86 1.03
1.08 1.13 1.16 1.29 1.49 1.63 1.69 1.77 1.89 1.90 1.93 1.92 1.98 2.03 1.99 2.04 1.93 1.77 1.73 1.80 1.88 1.67 1.50 1.28 1.03 0.87 0.91 0.88 0.92 0.77 0.69 0.69 0.57 0.47 0.43 0.37 0.32 0.32 0.34 0.41 0.48 0.53 0.58
0.97 1.06 1.07 1.13 1.24 1.33 1.45 1.61 1.73 1.80 1.81 1.74 1.73 1.78 1.81 1.87 1.92 1.89 1.84 1.78 1.74 1.69 1.60 1.40 1.10 0.84 0.90 0.93 1.00 0.83 0.82 0.89 0.71 0.55 0.45 0.40 0.36 0.32 0.29 0.30 0.30 0.28 0.30
0.95 1.00 1.05 1.09 1.12 1.20 1.25 1.36 1.49 1.60 1.59 1.57 1.48 1.51 1.62 1.68 1.86 1.92 1.89 1.81 1.78 1.71 1.55 1.46 1.21 0.94 0.90 0.95 0.98 0.91 0.91 0.88 0.75 0.64 0.53 0.48 0.42 0.39 0.37 0.33 0.31 0.28 0.24
0.79 0.90 1.03 1.02 1.03 1.08 1.16 1.25 1.34 1.37 1.41 1.35 1.26 1.27 1.37 1.45 1.60 1.75 1.85 1.76 1.75 1.70 1.67 1.61 1.38 1.14 1.02 0.99 0.98 0.94 0.86 0.83 0.83 0.77 0.65 0.57 0.52 0.49 0.45 0.41 0.37 0.34 0.31
0.74 0.88 1.02 1.13 1.05 0.96 1.05 1.13 1.19 1.20 1.17 1.11 1.09 1.09 1.14 1.20 1.31 1.44 1.58 1.68 1.68 1.63 1.72 1.69 1.47 1.23 1.08 0.99 0.99 0.97 0.91 0.93 0.87 0.83 0.75 0.66 0.60 0.54 0.49 0.48 0.47 0.43 0.38
0.60 0.68 0.82 0.93 0.98 0.94 0.90 0.90 0.96 1.10 1.06 0.97 0.88 0.87 0.90 0.93 1.00 1.14 1.28 1.43 1.58 1.69 1.77 1.77 1.61 1.33 1.13 1.05 1.03 1.08 1.09 0.99 0.97 0.89 0.86 0.80 0.79 0.74 0.65 0.58 0.52 0.47 0.44
0.47 0.54 0.70 0.88 0.94 0.93 0.96 0.96 0.88 0.91 0.96 0.97 0.89 0.79 0.73 0.73 0.81 0.90 1.00 1.24 1.43 1.58 1.71 1.74 1.65 1.48 1.28 1.19 1.09 1.03 1.11 1.19 1.20 1.07 1.03 0.93 0.86 0.75 0.67 0.60 0.53 0.46 0.41
0.42 0.45 0.53 0.69 0.85 0.83 0.98 1.02 0.96 0.88 0.89 0.87 0.86 0.86 0.85 0.79 0.68 0.62 0.66 0.83 1.06 1.27 1.44 1.53 1.54 1.43 1.28 1.21 1.25 1.21 1.12 1.13 1.22 1.12 1.09 1.17 1.07 0.93 0.82 0.70 0.64 0.56 0.48
0.38 0.41 0.47 0.59 0.74 0.88 0.91 0.81 0.90 0.91 0.87 0.87 0.82 0.83 0.87 0.85 0.87 0.76 0.68 0.66 0.72 0.89 1.10 1.28 1.31 1.27 1.34 1.28 1.21 1.15 1.07 1.02 1.01 1.02 1.03 1.12 1.10 1.00 0.88 0.84 0.84 0.74 0.67
0.37 0.39 0.43 0.49 0.57 0.76 0.80 0.70 0.88 0.92 0.92 0.90 0.88 0.89 0.92 0.95 0.92 1.01 0.98 0.89 0.84 0.84 0.94 0.86 0.96 1.21 1.28 1.28 1.27 1.28 1.26 1.14 1.04 0.99 0.93 0.98 0.97 0.92 0.82 0.77 0.81 0.74 0.66
0.39 0.38 0.38 0.41 0.43 0.52 0.61 0.58 0.71 0.86 0.96 0.95 0.84 0.83 0.88 0.91 1.09 1.13 1.05 1.03 0.97 0.93 1.07 1.07 1.07 1.10 1.14 1.13 1.14 1.22 1.26 1.19 1.14 1.04 0.90 0.81 0.81 0.86 0.87 0.80 0.79 0.80 0.73
0.46 0.41 0.39 0.37 0.40 0.42 0.55 0.44 0.55 0.72 0.88 0.97 0.91 0.86 1.01 0.97 0.99 0.93 0.88 1.08 1.06 0.96 0.88 0.84 0.85 0.89 0.90 0.94 0.99 1.02 1.13 1.11 1.03 1.03 0.89 0.80 0.79 0.83 0.86 0.79 0.71 0.70 0.71